Regional Weather Roundup
Issued by NWS

Home | Current Version | Previous Version | Graphics & Text | Print | Product List | Glossary On
Versions: 1 2 3 4 5 6 7 8 9 10 11 12 13 14 15 16 17 18 19 20 21 22 23 24 25 26 27 28 29 30 31 32 33 34 35 36 37 38 39 40 41 42 43 44 45 46 47 48 49 50
954
ASUS43 KLMK 200310
RWRKY
KENTUCKY REGIONAL WEATHER ROUNDUP
NATIONAL WEATHER SERVICE LOUISVILLE KY
1000 PM EST SUN NOV 19 2017

NOTE "FAIR" INDICATES FEW OR NO CLOUDS BELOW 12,000 FEET
WITH NO SIGNIFICANT WEATHER AND/OR OBSTRUCTIONS TO VISIBILITY.

KYZ001>023-026-027-061>063-070>075-200400-
WESTERN AND SOUTH CENTRAL KENTUCKY

CITY           SKY/WX    TMP DP  RH WIND       PRES   REMARKS
PADUCAH        CLEAR     29  23  78 CALM      30.24R
HENDERSON      CLEAR     26  24  92 CALM      30.24R
OWENSBORO      CLEAR     29  24  82 CALM      30.23S
HOPKINSVILLE   CLEAR     33  23  67 CALM      30.24R
BOWLING GREEN  CLEAR     32  24  72 CALM      30.24R
GLASGOW        CLEAR     28  24  86 CALM      30.23R
$$

KYZ024-025-028>034-038-045-046-053-200400-
NORTH CENTRAL KENTUCKY

CITY           SKY/WX    TMP DP  RH WIND       PRES   REMARKS
LOUISVILLE/SDF CLEAR     32  23  69 W7        30.21R WCI  26
LOUISVILLE/LOU CLEAR     33  24  69 W3        30.22R
FORT KNOX      CLEAR     28  22  79 CALM      30.19R
$$

KYZ035>037-039>044-047>052-055>060-089>105-200400-
NORTHEAST KENTUCKY

CITY           SKY/WX    TMP DP  RH WIND       PRES   REMARKS
LEXINGTON      CLEAR     30  23  75 W5        30.19R WCI  25
COVINGTON      CLEAR     29  24  82 W6        30.16R WCI  23
FRANKFORT      CLEAR     30  22  72 W3        30.19R
$$

KYZ054-064>069-076>088-106>120-200400-
SOUTHEAST KENTUCKY

CITY           SKY/WX    TMP DP  RH WIND       PRES   REMARKS
JACKSON        CLEAR     31  25  78 SW3       30.16R
LONDON         CLEAR     30  25  81 CALM      30.18S
SOMERSET       CLEAR     30  30 100 CALM      30.22S
MIDDLESBORO    CLEAR     32  28  85 CALM      30.20S
MONTICELLO     CLEAR     24  21  88 W9        30.23R WCI  14
$$





USA.gov is the U.S. government's official web portal to all federal, state and local government web resources and services.